Regional Weather Roundup
Issued by NWS

Home | Current Version | Previous Version | Graphics & Text | Print | Product List | Glossary On
Versions: 1 2 3 4 5 6 7 8 9 10 11 12 13 14 15 16 17 18 19 20 21 22 23 24 25 26 27 28 29 30 31 32 33 34 35 36 37 38 39 40 41 42 43 44 45 46 47 48 49 50
000
ASUS43 KLOT 040021
RWRIL

ILLINOIS REGIONAL WEATHER ROUNDUP
NATIONAL WEATHER SERVICE CHICAGO/ROMEOVILLE IL
700 PM CDT SUN MAY 03 2015

NOTE: "FAIR" INDICATES FEW OR NO CLOUDS BELOW 12,000 FEET WITH NO
SIGNIFICANT WEATHER AND/OR OBSTRUCTIONS TO VISIBILITY.

* THESE STATIONS ARE NOT UNDER NWS QUALITY CONTROL. THEY ALSO MAY NOT
  REPORT WEATHER SUCH AS PRECIPITATION OR FOG.

ILZ001-002-007-009-015-016-024-040100-
NORTHWEST ILLINOIS

CITY           SKY/WX    TMP DP  RH WIND       PRES   REMARKS
MOLINE         PTSUNNY   81  55  40 S9        29.83F HX  81
6HR MIN TEMP:  75; 6HR MAX TEMP:  83;

STERLING*      CLEAR     66  59  77 E10       29.87F
SAVANNA*       SUNNY     70  59  69 SE10      29.86F
$$

ILZ003-004-008-010-011-017-018-040100-
NORTH CENTRAL ILLINOIS

CITY           SKY/WX    TMP DP  RH WIND       PRES   REMARKS
ROCKFORD       PTCLDY    64  58  80 SE12      29.90F
6HR MIN TEMP:  61; 6HR MAX TEMP:  66; 6HR PCP:  0.37;

FREEPORT*      CLEAR     65  59  81 SE10      29.89F
ROCHELLE*      MOCLDY    66  59  78 E9        29.91F
DE KALB*       CLOUDY    62  57  84 E9        29.92F
PERU*          MOCLDY    69  55  61 S13       29.91R THUNDER
$$

ILZ005-006-012>014-019>023-040100-
NORTHEAST ILLINOIS

CITY           SKY/WX    TMP DP  RH WIND       PRES   REMARKS
CHICAGO-OHARE  RAIN      63  59  87 NW12      29.96R FOG
6HR MIN TEMP:  63; 6HR MAX TEMP:  78; 6HR PCP:  0.10;

CHICAGO-MIDWAY LGT RAIN  69  57  65 NW12      29.95R
6HR MIN TEMP:  69; 6HR MAX TEMP:  82; 6HR PCP:  0.02;

AURORA         RAIN      63  57  81 E12G23    29.93R
6HR MIN TEMP:  63; 6HR MAX TEMP:  81; 6HR PCP:  0.09;

LANSING*       CLOUDY    75  38  26 S10       29.94R
JOLIET*        CLOUDY    75  52  45 S3        29.91F
WAUKEGAN       LGT RAIN  61  59  93 CALM      29.94F
6HR MIN TEMP:  61; 6HR MAX TEMP:  78; 6HR PCP:  0.20;

DUPAGE AIRPORT TSTM      61  59  93 NE6       29.95R FOG
6HR MIN TEMP:  61; 6HR MAX TEMP:  77; 6HR PCP:  0.16;

KANKAKEE*      CLOUDY    76  46  34 S14G20    29.94S
WHEELING       LGT RAIN  62  59  90 CALM      29.96R FOG
6HR MIN TEMP:  62; 6HR MAX TEMP:  78; 6HR PCP:  0.15;

MORRIS*        CLOUDY    77  48  35 SW12      29.90R
ROMEOVILLE*    LGT RAIN  69  52  54 S5        29.91F
NORTHERLY ISL    N/A     74  50  42 W13         N/A
$$

LMZ740>746-040100-
SOUTHERN LAKE MICHIGAN

STATION/POSITION SKY/WX   TEMP    WIND        PRES    VSBY  WAVE
                          AIR SEA DIR/SP/G                  HT/PER
                          (F)     (DEG/KT/KT) (MB)    (MI)  (FT/S)
HARRISON CRIB              67     300/ 19/ 24   N/A
BURNHAM HARBOR             68     300/  8/ 15   N/A
CALUMET HARBOR             76     210/  5/  7   N/A
BURNS HARBOR               77     220/ 19/ 22 1013.9R
MICHIGAN CITY              77     170/ 10/ 12   N/A
MICHIGAN CITY 6N           63 51  210/  8/ 10   N/A           1
ST. JOSEPH                 65 50  200/  8/ 10   N/A           1/ 3
$$

ILZ025>027-034>036-040-047-049-050-058-095>099-040100-
WEST-CENTRAL ILLINOIS

CITY           SKY/WX    TMP DP  RH WIND       PRES   REMARKS
QUINCY         PTSUNNY   77  53  43 S10       29.88S
GALESBURG*     SUNNY     78  55  44 S12       29.87S
MACOMB*        SUNNY     81  52  36 S14       29.89S HX  80
JACKSONVILLE*  CLEAR     82  49  31 S10G18    29.91R HX  81
PITTSFIELD*    PTSUNNY   78  54  43 S6        29.92R
$$

ILZ028>032-037-038-041>044-048-051>054-059>061-040100-
CENTRAL ILLINOIS

CITY           SKY/WX    TMP DP  RH WIND       PRES   REMARKS
PONTIAC        CLOUDY    81  48  32 S13G20    29.93R HX  80
BLOOMINGTON    PTCLDY    79  49  34 S23G29    29.93S
DECATUR        CLEAR     77  47  34 S17       29.96R
PEORIA         CLEAR     82  51  34 SW13      29.89R HX  81
6HR MIN TEMP:  81; 6HR MAX TEMP:  86;

LACON*         MOCLDY    81  51  35 SW10      29.88R HX  80
LINCOLN*       CLEAR     81  47  30 S12G21    29.90R HX  80
SPRINGFIELD    CLEAR     80  49  33 S20       29.92S
6HR MIN TEMP:  80; 6HR MAX TEMP:  85;

TAYLORVILLE    CLEAR     77  46  33 S16       29.95S
$$

ILZ033-039-045-046-055>057-062-063-040100-
EAST-CENTRAL ILLINOIS

CITY           SKY/WX    TMP DP  RH WIND       PRES   REMARKS
CHAMPAIGN      PTCLDY    79  44  28 S20G28    29.97R
DANVILLE*      MOCLDY    76  46  34 S10G17    29.95S
RANTOUL*       MOCLDY    80  46  30 S16G26    29.96R
MATTOON        CLEAR     76  46  34 S10       29.97S
PARIS*         MOCLDY    77  45  32 S16       29.99S
$$

ILZ079-100>102-040100-
SOUTHWEST ILLINOIS

CITY           SKY/WX    TMP DP  RH WIND       PRES   REMARKS
ALTON          MOCLDY    77  36  22 S14       29.95
BELLEVILLE     MOCLDY    76  51  41 S8        29.94F
CAHOKIA*       MOCLDY    79  48  33 S9        29.94S
SPARTA*        PTCLDY    75  48  38 S10       29.99S
$$

ILZ064>066-069>071-074>076-080>082-084>086-088>090-092>094-040100-
SOUTH-CENTRAL ILLINOIS

CITY           SKY/WX    TMP DP  RH WIND       PRES   REMARKS
CARBONDALE     PTCLDY    75  47  36 S9        30.00S
6HR MIN TEMP:  75; 6HR MAX TEMP:  80;

CAIRO*         CLEAR     76  46  33 S8        30.02F
EFFINGHAM*     PTCLDY    76  39  26 S10       30.00S
MARION         PTCLDY    75  46  35 S9        30.02S
MT. VERNON     PTCLDY   N/A N/A N/A S8        30.01S
CENTRALIA*     PTCLDY    74  43  33 S8G16     29.99S
SALEM*         PTCLDY    78  39  24 S12G21    30.00R
METROPOLIS*    CLEAR     76  47  35 S7        30.03S
$$

ILZ067-068-072-073-078-083-087-091-040100-
SOUTHEAST ILLINOIS

CITY           SKY/WX    TMP DP  RH WIND       PRES   REMARKS
LAWRENCEVILLE  CLEAR     76  47  35 S13       30.02R
FLORA*         CLEAR     76  46  34 S12       30.00S
FAIRFIELD*     PTCLDY    76  44  31 S14G20    30.00S
HARRISBURG*    PTCLDY    76  44  31 S7        30.04R
ROBINSON*      CLEAR     76  45  33 S10G18    30.01S
CARMI*         CLEAR     74  41  30 S10       30.02S
$$

ABBREVIATIONS USED IN REMARKS
   TC - TEMPERATURE IN CELSIUS
  WCI - WIND CHILL INDEX
   HX - HEAT INDEX
  VSB - VISIBILITY
$$




USA.gov is the U.S. government's official web portal to all federal, state and local government web resources and services.